Cocoa Beach, FL

2:10 AM EDT on May 30, 2017 (GMT -0400)
Patrick Air Force Base

Weather History for KCOF - September, 2012

Change the Weather History Date:

Thursday, September 6, 2012

  Actual Average Record
Temperature  
Mean Temperature 80 °F -  
Max Temperature 86 °F 84 °F 92 °F (2011)
Min Temperature 74 °F 75 °F 71 °F (1999)
Cooling Degree Days 15    
Growing Degree Days 30 (Base 50)    
Moisture  
Dew Point 73 °F    
Average Humidity 82    
Maximum Humidity 92    
Minimum Humidity 66    
Precipitation  
Precipitation 0.00 in - - ()
Sea Level Pressure  
Sea Level Pressure 30.00 in    
Wind  
Wind Speed 9 mph (SSW)    
Max Wind Speed 25 mph    
Max Gust Speed 36 mph    
Visibility 10 miles    
Events Thunderstorm    
Averages and records for this station are not official NWS values.
T = Trace of Precipitation, MM = Missing Value Source: NWS Daily Summary

Daily Weather History Graph

Daily Weather History Graph

Search for Another Location

Airport or City:

Trip Planner

Search our weather history database for the weather conditions in past years. The results will help you decide how hot, cold, wet, or windy it might be!

Date:

Astronomy

Sep. 06, 2012 Rise Set
Actual Time 7:03 AM EDT 7:37 PM EDT
Civil Twilight 6:39 AM EDT 8:00 PM EDT
Nautical Twilight 6:11 AM EDT 8:28 PM EDT
Astronomical Twilight 5:43 AM EDT 8:57 PM EDT
Moon 11:21 PM EDT (9/6) 12:27 PM EDT (9/6)
Length of Visible Light 13h 21m
Length of Day
12h 33m
Waning Gibbous, 67% of the Moon is Illuminated
Sep 6
Waning Gibbous
Sep 8
Last Quarter
Sep 15
New
Sep 22
First Quarter
Sep 29
Full

Hourly Weather History & Observations

Time (EDT) Temp. Heat Index Dew Point Humidity Pressure Visibility Wind Dir Wind Speed Gust Speed Precip Events Conditions
12:55 AM 75.2 °F - 71.2 °F 87% 29.99 in 10.0 mi SW 9.2 mph - N/A   Clear
1:55 AM 74.8 °F - 71.1 °F 88% 29.99 in 10.0 mi SSW 9.2 mph - N/A   Clear
2:55 AM 74.7 °F - 71.2 °F 89% 29.98 in 10.0 mi South 6.9 mph - N/A   Clear
3:55 AM 75.0 °F - 71.6 °F 89% 29.98 in 10.0 mi WSW 4.6 mph - N/A   Clear
4:55 AM 74.3 °F - 71.2 °F 90% 29.99 in 10.0 mi South 5.8 mph - N/A   Clear
5:55 AM 74.1 °F - 71.8 °F 92% 30.00 in 10.0 mi SSW 6.9 mph - N/A   Clear
6:55 AM 74.5 °F - 71.6 °F 91% 30.01 in 10.0 mi SSW 5.8 mph - N/A   Partly Cloudy
7:55 AM 75.0 °F - 72.0 °F 90% 30.03 in 10.0 mi South 3.5 mph - N/A   Clear
8:55 AM 78.8 °F - 72.1 °F 80% 30.04 in 10.0 mi SSW 8.1 mph - N/A   Clear
9:55 AM 81.1 °F 86.0 °F 73.0 °F 76% 30.03 in 10.0 mi SW 6.9 mph - N/A   Clear
10:55 AM 84.9 °F 91.1 °F 72.3 °F 66% 30.05 in 10.0 mi WSW 6.9 mph - N/A   Clear
11:55 AM 85.1 °F 93.7 °F 75.2 °F 72% 30.04 in 10.0 mi ESE 9.2 mph - N/A   Clear
12:55 PM 85.6 °F 95.9 °F 76.6 °F 74% 30.04 in 10.0 mi ESE 10.4 mph - N/A   Clear
1:55 PM 85.8 °F 97.3 °F 77.5 °F 76% 30.02 in 10.0 mi SE 12.7 mph - N/A   Clear
2:55 PM 86.7 °F 99.3 °F 77.9 °F 75% 30.00 in 10.0 mi SE 15.0 mph - N/A   Clear
3:55 PM 86.5 °F 98.3 °F 77.5 °F 74% 29.97 in 10.0 mi SE 19.6 mph - N/A   Clear
4:55 PM 85.1 °F 92.9 °F 74.1 °F 70% 29.95 in 10.0 mi SSE 12.7 mph - N/A   Clear
4:56 PM 84.2 °F 90.9 °F 73.4 °F 70% 29.96 in 10.0 mi SE 10.4 mph - N/A Thunderstorm Thunderstorm
5:31 PM 78.8 °F - 69.8 °F 74% 29.99 in 10.0 mi NW 25.3 mph 35.7 mph N/A Thunderstorm Thunderstorm
5:41 PM 77.0 °F - 69.8 °F 78% 29.99 in 10.0 mi WNW 15.0 mph - N/A   Mostly Cloudy
5:46 PM 77.0 °F - 69.8 °F 78% 30.00 in 10.0 mi West 11.5 mph - N/A   Light Drizzle
5:55 PM 77.2 °F - 70.7 °F 80% 30.00 in 10.0 mi West 10.4 mph - 0.00 in Thunderstorm Light Drizzle
6:32 PM 75.2 °F - 71.6 °F 89% 30.02 in 10.0 mi West 6.9 mph - N/A   Clear
6:55 PM 75.9 °F - 72.5 °F 89% 30.01 in 10.0 mi SSW 6.9 mph - 0.00 in   Clear
7:55 PM 76.1 °F - 73.0 °F 90% 30.01 in 10.0 mi SW 17.3 mph - N/A   Partly Cloudy
8:55 PM 75.4 °F - 72.3 °F 90% 30.00 in 10.0 mi SSW 8.1 mph - N/A   Clear
9:55 PM 76.1 °F - 72.0 °F 87% 30.00 in 10.0 mi WSW 4.6 mph - N/A   Partly Cloudy
10:55 PM 75.6 °F - 71.8 °F 88% 29.99 in 10.0 mi SW 6.9 mph - N/A   Clear
11:55 PM 75.9 °F - 72.1 °F 88% 29.99 in 10.0 mi SSW 9.2 mph - N/A   Clear